When you browse on this site, cookies collect data to enhance your experience and personalize the content and advertising you see.
Visit our Privacy Policy to learn more. By continuing to use the site, you agree to this use of cookies and data.
  • In Germany
  • List of Countries
  • For 7 days
  • Water Temperature
  • Satellite Maps
  • Weather Map
  • Weather Widgets
  • user-avatar
    Login

    Hourly Weather Minsk

    Today, 23 May, Thursday

    Time Temperature Precipitation Wind Pressure Humidity
    00:00 +15°C° 0 mm 1 mps 737 mmHg 82%
    01:00 +14°C° 0 mm 1 mps 737 mmHg 83%
    02:00 +14°C° 0 mm 1 mps 737 mmHg 84%
    03:00 +14°C° 0 mm 1 mps 737 mmHg 84%
    04:00 +14°C° 0 mm 1 mps 737 mmHg 84%
    05:00 +14°C° 0 mm 1 mps 737 mmHg 84%
    06:00 +16°C° 0 mm 1 mps 737 mmHg 79%
    07:00 +18°C° 0 mm 1 mps 737 mmHg 74%
    08:00 +20°C° 0 mm 1 mps 737 mmHg 69%
    09:00 +20°C° 0 mm 2 mps 737 mmHg 65%
    10:00 +21°C° 0 mm 2 mps 737 mmHg 61%
    11:00 +23°C° 0 mm 2 mps 737 mmHg 56%
    12:00 +24°C° 0 mm 2 mps 737 mmHg 55%
    13:00 +24°C° 0 mm 3 mps 737 mmHg 53%
    14:00 +25°C° 0 mm 3 mps 737 mmHg 51%
    15:00 +25°C° 0 mm 3 mps 737 mmHg 53%
    16:00 +25°C° 0 mm 2 mps 737 mmHg 54%
    17:00 +25°C° 0 mm 2 mps 737 mmHg 56%
    18:00 +23°C° 0 mm 2 mps 737 mmHg 62%
    19:00 +20°C° 0 mm 2 mps 737 mmHg 68%
    20:00 +20°C° 0 mm 1 mps 737 mmHg 74%
    21:00 +19°C° 0 mm 1 mps 737 mmHg 78%
    22:00 +18°C° 0 mm 1 mps 737 mmHg 82%
    23:00 +16°C° 0 mm 1 mps 737 mmHg 85%

    Tomorrow, 24 May, Friday

    Time Temperature Precipitation Wind Pressure Humidity
    00:00 +16°C° 0 mm 1 mps 737 mmHg 86%
    01:00 +16°C° 0 mm 1 mps 737 mmHg 88%
    02:00 +15°C° 0 mm 2 mps 737 mmHg 89%
    03:00 +15°C° 0 mm 2 mps 737 mmHg 90%
    04:00 +15°C° 0 mm 2 mps 737 mmHg 91%
    05:00 +15°C° 0 mm 2 mps 737 mmHg 92%
    06:00 +16°C° 0 mm 2 mps 737 mmHg 90%
    07:00 +17°C° 0 mm 2 mps 737 mmHg 88%
    08:00 +18°C° 0 mm 3 mps 738 mmHg 86%
    09:00 +19°C° 0.1 mm 3 mps 737 mmHg 83%
    10:00 +20°C° 0.1 mm 3 mps 737 mmHg 81%
    11:00 +20°C° 0.1 mm 3 mps 737 mmHg 78%
    12:00 +21°C° 0.6 mm 3 mps 737 mmHg 76%
    13:00 +21°C° 0.6 mm 3 mps 737 mmHg 74%
    14:00 +22°C° 0.6 mm 3 mps 737 mmHg 72%
    15:00 +22°C° 0.5 mm 3 mps 737 mmHg 71%
    16:00 +22°C° 0.5 mm 3 mps 736 mmHg 71%
    17:00 +23°C° 0.5 mm 2 mps 736 mmHg 71%
    18:00 +21°C° 0.3 mm 2 mps 736 mmHg 76%
    19:00 +19°C° 0.3 mm 2 mps 736 mmHg 82%
    20:00 +18°C° 0.3 mm 2 mps 736 mmHg 87%
    21:00 +17°C° 0.2 mm 3 mps 736 mmHg 89%
    22:00 +16°C° 0.2 mm 3 mps 736 mmHg 92%
    23:00 +16°C° 0.2 mm 3 mps 736 mmHg 94%

    Day after tomorrow, 25 May, Saturday

    Time Temperature Precipitation Wind Pressure Humidity
    00:00 +14°C° 0 mm 3 mps 736 mmHg 94%
    01:00 +14°C° 0 mm 3 mps 736 mmHg 94%
    02:00 +13°C° 0 mm 3 mps 736 mmHg 95%
    03:00 +13°C° 0 mm 3 mps 736 mmHg 94%
    04:00 +13°C° 0 mm 4 mps 736 mmHg 94%
    05:00 +12°C° 0 mm 4 mps 736 mmHg 93%
    06:00 +13°C° 0 mm 4 mps 736 mmHg 88%
    07:00 +14°C° 0 mm 4 mps 736 mmHg 82%
    08:00 +17°C° 0 mm 4 mps 736 mmHg 77%
    09:00 +18°C° 0 mm 4 mps 736 mmHg 70%
    10:00 +19°C° 0 mm 4 mps 736 mmHg 63%
    11:00 +20°C° 0 mm 4 mps 736 mmHg 56%
    12:00 +21°C° 0 mm 4 mps 736 mmHg 55%
    13:00 +21°C° 0 mm 4 mps 736 mmHg 54%
    14:00 +22°C° 0 mm 4 mps 735 mmHg 52%
    15:00 +21°C° 0.2 mm 4 mps 735 mmHg 59%
    16:00 +20°C° 0.2 mm 4 mps 735 mmHg 66%
    17:00 +19°C° 0.2 mm 4 mps 735 mmHg 73%
    18:00 +18°C° 0 mm 4 mps 735 mmHg 76%
    19:00 +17°C° 0 mm 4 mps 735 mmHg 79%
    20:00 +16°C° 0 mm 3 mps 735 mmHg 82%
    21:00 +13°C° 0 mm 3 mps 735 mmHg 84%
    22:00 +12°C° 0 mm 3 mps 736 mmHg 86%
    23:00 +10°C° 0 mm 3 mps 736 mmHg 88%

    26 May, Sunday

    Time Temperature Precipitation Wind Pressure Humidity
    00:00 +9°C° 0 mm 3 mps 736 mmHg 89%
    01:00 +9°C° 0 mm 3 mps 736 mmHg 91%
    02:00 +8°C° 0 mm 3 mps 736 mmHg 92%
    03:00 +8°C° 0 mm 3 mps 736 mmHg 93%
    04:00 +8°C° 0 mm 3 mps 736 mmHg 93%
    05:00 +8°C° 0 mm 3 mps 736 mmHg 93%
    06:00 +8°C° 0 mm 4 mps 736 mmHg 88%
    07:00 +11°C° 0 mm 4 mps 736 mmHg 83%
    08:00 +12°C° 0 mm 4 mps 736 mmHg 78%
    09:00 +13°C° 0 mm 5 mps 736 mmHg 74%
    10:00 +14°C° 0 mm 5 mps 735 mmHg 70%
    11:00 +15°C° 0 mm 5 mps 735 mmHg 66%
    12:00 +15°C° 0.2 mm 6 mps 735 mmHg 68%
    13:00 +15°C° 0.2 mm 6 mps 735 mmHg 70%
    14:00 +15°C° 0.2 mm 7 mps 735 mmHg 72%
    15:00 +14°C° 0.2 mm 7 mps 734 mmHg 73%
    16:00 +12°C° 0.2 mm 7 mps 734 mmHg 75%
    17:00 +11°C° 0.2 mm 7 mps 734 mmHg 77%
    18:00 +10°C° 0.3 mm 6 mps 734 mmHg 80%
    19:00 +9°C° 0.3 mm 5 mps 734 mmHg 84%
    20:00 +8°C° 0.3 mm 4 mps 734 mmHg 88%
    21:00 +8°C° 0.2 mm 4 mps 734 mmHg 88%
    22:00 +7°C° 0.2 mm 4 mps 734 mmHg 89%
    23:00 +7°C° 0.2 mm 5 mps 734 mmHg 89%

    27 May, Monday

    Time Temperature Precipitation Wind Pressure Humidity
    00:00 +7°C° 0.1 mm 5 mps 735 mmHg 90%
    01:00 +6°C° 0.1 mm 5 mps 735 mmHg 90%
    02:00 +5°C° 0.1 mm 6 mps 735 mmHg 90%
    03:00 +5°C° 0 mm 6 mps 735 mmHg 91%
    04:00 +6°C° 0 mm 5 mps 736 mmHg 91%
    05:00 +5°C° 0 mm 5 mps 736 mmHg 92%
    06:00 +6°C° 0 mm 5 mps 736 mmHg 89%
    07:00 +8°C° 0 mm 5 mps 737 mmHg 87%
    08:00 +9°C° 0 mm 6 mps 738 mmHg 84%
    09:00 +10°C° 0.1 mm 6 mps 738 mmHg 81%
    10:00 +11°C° 0.1 mm 6 mps 739 mmHg 78%
    11:00 +13°C° 0.1 mm 6 mps 739 mmHg 75%
    12:00 +13°C° 0 mm 5 mps 739 mmHg 74%
    13:00 +14°C° 0 mm 5 mps 740 mmHg 72%
    14:00 +14°C° 0 mm 5 mps 740 mmHg 71%
    15:00 +15°C° 0 mm 5 mps 740 mmHg 70%
    16:00 +15°C° 0 mm 4 mps 740 mmHg 70%
    17:00 +17°C° 0 mm 4 mps 740 mmHg 69%
    18:00 +16°C° 0 mm 3 mps 740 mmHg 74%
    19:00 +14°C° 0 mm 3 mps 740 mmHg 78%
    20:00 +13°C° 0 mm 3 mps 740 mmHg 83%
    21:00 +12°C° 0 mm 3 mps 740 mmHg 85%
    22:00 +12°C° 0 mm 3 mps 740 mmHg 88%
    23:00 +11°C° 0 mm 4 mps 740 mmHg 90%

    28 May, Tuesday

    Time Temperature Precipitation Wind Pressure Humidity
    00:00 +10°C° 0 mm 4 mps 740 mmHg 91%
    01:00 +10°C° 0 mm 3 mps 740 mmHg 91%
    02:00 +10°C° 0 mm 3 mps 740 mmHg 92%
    03:00 +10°C° 0 mm 3 mps 740 mmHg 91%
    04:00 +10°C° 0 mm 3 mps 740 mmHg 91%
    05:00 +10°C° 0 mm 3 mps 741 mmHg 90%
    06:00 +12°C° 0 mm 3 mps 741 mmHg 86%
    07:00 +14°C° 0 mm 4 mps 741 mmHg 81%
    08:00 +15°C° 0 mm 4 mps 741 mmHg 76%
    09:00 +18°C° 0 mm 4 mps 741 mmHg 70%
    10:00 +19°C° 0 mm 4 mps 740 mmHg 65%
    11:00 +20°C° 0 mm 4 mps 740 mmHg 59%
    12:00 +20°C° 0.1 mm 4 mps 740 mmHg 62%
    13:00 +21°C° 0.1 mm 5 mps 739 mmHg 65%
    14:00 +21°C° 0.1 mm 5 mps 739 mmHg 67%
    15:00 +19°C° 2.5 mm 5 mps 739 mmHg 76%
    16:00 +17°C° 2.5 mm 5 mps 738 mmHg 86%
    17:00 +15°C° 2.5 mm 5 mps 738 mmHg 95%
    18:00 +15°C° 0.9 mm 5 mps 737 mmHg 95%
    19:00 +15°C° 0.9 mm 4 mps 737 mmHg 96%
    20:00 +15°C° 0.9 mm 4 mps 737 mmHg 96%
    21:00 +15°C° 0 mm 4 mps 736 mmHg 97%
    22:00 +17°C° 0 mm 4 mps 736 mmHg 97%
    23:00 +17°C° 0 mm 3 mps 736 mmHg 97%
    Show more